Van Nuys, CA

2:07 PM PDT on April 23, 2017 (GMT -0700)
Van Nuys

Weather History for KVNY - March, 2014

Change the Weather History Date:

Friday, March 21, 2014

  Actual Average Record
Temperature  
Mean Temperature 60 °F -  
Max Temperature 68 °F 70 °F 86 °F (2008)
Min Temperature 53 °F 48 °F 42 °F (2006)
Degree Days  
Heating Degree Days 4    
Growing Degree Days 10 (Base 50)    
Moisture  
Dew Point 48 °F    
Average Humidity 69    
Maximum Humidity 86    
Minimum Humidity 49    
Precipitation  
Precipitation 0.00 in - - ()
Sea Level Pressure  
Sea Level Pressure 29.96 in    
Wind  
Wind Speed 3 mph (SE)    
Max Wind Speed 10 mph    
Max Gust Speed 16 mph    
Visibility 9 miles    
Events      
Averages and records for this station are not official NWS values.
T = Trace of Precipitation, MM = Missing Value Source: NWS Daily Summary

Daily Weather History Graph

Daily Weather History Graph

Search for Another Location

Airport or City:

Trip Planner

Search our weather history database for the weather conditions in past years. The results will help you decide how hot, cold, wet, or windy it might be!

Date:

Astronomy

Mar. 21, 2014 Rise Set
Actual Time 6:56 AM PDT 7:06 PM PDT
Civil Twilight 6:31 AM PDT 7:31 PM PDT
Nautical Twilight 6:01 AM PDT 8:00 PM PDT
Astronomical Twilight 5:32 AM PDT 8:30 PM PDT
Moon No Moon Rise 10:03 AM PDT (3/21)
Length of Visible Light 13h 00m
Length of Day
12h 10m
Waning Gibbous, 74% of the Moon is Illuminated
Mar 21
Waning Gibbous
Mar 23
Last Quarter
Mar 30
New
Apr 7
First Quarter
Apr 15
Full

Hourly Weather History & Observations

Time (PDT) Temp. Dew Point Humidity Pressure Visibility Wind Dir Wind Speed Gust Speed Precip Events Conditions
12:51 AM 57.0 °F 50.0 °F 77% 29.94 in 10.0 mi SE 4.6 mph - N/A   Clear
1:51 AM 54.0 °F 48.0 °F 80% 29.94 in 10.0 mi Calm Calm - N/A   Clear
2:51 AM 53.1 °F 48.0 °F 83% 29.94 in 10.0 mi ENE 3.5 mph - N/A   Clear
3:20 AM 53.6 °F 48.2 °F 82% 29.96 in 9.0 mi East 3.5 mph - N/A   Partly Cloudy
3:38 AM 53.6 °F 48.2 °F 82% 29.95 in 9.0 mi ESE 3.5 mph - N/A   Mostly Cloudy
3:51 AM 53.1 °F 48.9 °F 86% 29.94 in 9.0 mi East 3.5 mph - N/A   Scattered Clouds
4:02 AM 53.6 °F 48.2 °F 82% 29.95 in 9.0 mi ESE 3.5 mph - N/A   Mostly Cloudy
4:51 AM 54.0 °F 48.0 °F 80% 29.93 in 10.0 mi SSE 3.5 mph - N/A   Overcast
5:51 AM 55.0 °F 48.0 °F 77% 29.94 in 10.0 mi Calm Calm - N/A   Overcast
6:51 AM 54.0 °F 46.9 °F 77% 29.95 in 10.0 mi Calm Calm - N/A   Overcast
7:51 AM 55.0 °F 46.9 °F 74% 29.98 in 7.0 mi Calm Calm - N/A   Overcast
8:51 AM 57.0 °F 46.9 °F 69% 29.99 in 7.0 mi ENE 3.5 mph - N/A   Overcast
9:51 AM 57.0 °F 46.9 °F 69% 29.99 in 7.0 mi Calm Calm - N/A   Overcast
10:51 AM 59.0 °F 46.9 °F 64% 30.00 in 7.0 mi South 6.9 mph - N/A   Overcast
11:51 AM 63.0 °F 48.0 °F 58% 29.99 in 9.0 mi Calm Calm - N/A   Scattered Clouds
12:51 PM 64.9 °F 46.0 °F 50% 29.99 in 10.0 mi Calm Calm - N/A   Mostly Cloudy
1:51 PM 66.0 °F 48.9 °F 54% 29.97 in 10.0 mi South 10.4 mph 16.1 mph N/A   Partly Cloudy
2:51 PM 68.0 °F 48.9 °F 50% 29.95 in 10.0 mi Variable 4.6 mph - N/A   Clear
3:51 PM 68.0 °F 48.0 °F 49% 29.93 in 10.0 mi Variable 5.8 mph - N/A   Partly Cloudy
4:51 PM 66.0 °F 48.9 °F 54% 29.91 in 10.0 mi South 9.2 mph - N/A   Clear
5:51 PM 64.0 °F 48.0 °F 56% 29.91 in 10.0 mi South 10.4 mph - N/A   Clear
6:51 PM 60.1 °F 46.9 °F 62% 29.94 in 10.0 mi South 9.2 mph - N/A   Mostly Cloudy
7:51 PM 57.9 °F 46.0 °F 65% 29.95 in 10.0 mi SSE 5.8 mph - N/A   Mostly Cloudy
8:51 PM 57.0 °F 46.0 °F 67% 29.97 in 10.0 mi Calm Calm - N/A   Clear
9:51 PM 57.0 °F 46.9 °F 69% 29.97 in 10.0 mi Calm Calm - N/A   Clear
10:51 PM 55.0 °F 46.0 °F 72% 29.98 in 10.0 mi Calm Calm - N/A   Clear
11:51 PM 55.0 °F 46.9 °F 74% 29.99 in 10.0 mi Calm Calm - N/A   Clear